NOAA 17 DEB, 48761

Orbit data source: Space-Track

NOAA 17 DEB, 48761 is space debris in SSO originally from a launch on Mon, 24 Jun 2002 UTC launched from the Air Force Western Test Range (AFWTR). Debris objects in space refer to the collection of defunct objects orbiting the Earth. Examples of debris include non-operational satellites, rocket bodies, and fragments generated from explosions, collisions, or faulty payload assembly.

Loading next visibility...
Identifier
48761, 2002-032CW
Orbit
SSO
Country
Flag of USUS
Related business
Manufacturer
Unknown
Mission
Spacecraft
Bus & Motor
Unknown
Mass
Unknown
Launch date (UTC)
2002-06-24 (23 years ago)
Launch vehicle
Unknown
Launch site
Air Force Western Test Range (AFWTR)
Object type
Payload
Rocket body
Debris
Shape & HBR
Unknown shape, 0.1 m
Radar Cross Section
Small (<0.1 m²)

Expand to show TLE details & history
Last TLE update: 17 hours ago

TLE from 17 hours ago
0 NOAA 17 DEB
1 48761U 02032CW  25348.91386760  .00010495  00000-0  19659-2 0  9996
2 48761  98.7111 335.6819 0004248  93.3527 266.8161 14.64994725246044
Epoch: 2025-12-14T21:55Z
TLE epoch observation values (Epoch: 2025-12-14T21:55:58.160Z)
Latitude
0.00005°
Longitude
-77.1304°
Altitude
680.236 km
Speed
7.516 km/s
True Right ascension
22h 22m 43s
True Declination
0° 00' 00"
Sunlit
Object was in daylight at epoch
Visualization orbit readout
Latitude
Unknown
Longitude
Unknown
Altitude
Unknown
Speed
Unknown
Apparent Right ascension
Unknown
Apparent Declination
Unknown
Sunlit
N/A
Visualization observer readout
Local Sidereal Time
13:18:52
Azimuth
Unknown
Elevation
Unknown
Doppler factor
Unknown
Orbital elements
Apogee altitude
677.187 km
Perigee altitude
671.195 km
Semi-major axis
7,052.328 km
Eccentricity
0.00042
Inclination
98.7111°
RAAN
335.6819°
Arg. of periapsis
93.3527°
True anomaly
266.7675°
Mean anomaly
266.8161°
Eccentric anomaly
266.7918°
Mean motion
3.66475 °/min
Orbital period
98.23 mins
BSTAR
0.0019659
Loading maneuver chart data...
Computing Atmospheric mass density...
Loading historical data...
Loading historical data...
Loading historical data...
Loading historical data...
Loading historical data...
Loading historical data...
Loading historical data...

Documentation

Showing up to 5 results
|